[[{"header":{"parameterUnit":"m.s-1","parameterCategory":1,"la1":30.2991,"la2":30.254,"lo1":-89.0895,"lo2":-89.0444,"dy":0.0017,"dx":0.0017,"nx":28,"ny":28,"refTime":"2024-07-07T09:00:00:Z","depth":0,"parameterNumber":2,"parameterNumberName":"U-component_of_WINDS"},"data":[0,0,0,0,0,0,0,0,0,0,0,0,0,0,0,0,0,0,0,0,0,0,0,0,0,0,0,0,0,0,0,0,0,0,0,0,0,0,0,0,0,0,0,0,0,0,0,0,0,0,0,0,0,0,0,0,0,0,2.1873,2.1873,0,2.1861,2.1861,2.186,2.1778,2.1776,2.1774,2.1772,2.176,2.1762,2.1763,0,0,0,0,0,0,0,0,0,0,0,0,0,2.1826,2.1828,2.1873,2.1873,2.1873,2.1861,2.1861,2.186,2.1779,2.1776,2.1774,2.1771,2.176,2.1761,2.1763,0,0,0,0,0,0,0,0,0,0,0,0,0,2.1834,2.1828,2.1873,2.1831,2.1827,2.1861,2.1861,2.186,2.1779,2.1776,2.1773,2.177,2.1759,2.1761,2.1764,2.1838,0,0,2.1771,2.1772,0,0,0,0,0,0,0,0,2.1833,2.1835,2.1837,2.1834,2.1829,2.1818,2.1839,2.1853,2.178,2.1797,2.1772,2.1769,2.1782,2.1782,2.1786,2.1837,2.1837,2.1771,2.1772,2.1773,2.1774,0,0,0,0,0,0,0,2.1833,2.1836,2.1868,2.1837,2.1833,2.1812,2.181,2.1842,2.1807,2.1795,2.1789,2.1789,2.1779,2.1784,2.1785,2.1836,2.1771,2.1773,2.1774,2.1775,2.1945,2.1948,0,0,0,0,0,0,2.1838,2.1836,2.1869,2.1868,2.1824,2.1815,2.1813,2.1825,2.1806,2.18,2.1792,2.1785,2.1782,2.1783,2.1785,2.1868,2.1773,2.1775,2.1777,2.1942,2.1946,2.1949,0,0,0,0,0,0,2.1838,2.1842,2.1869,2.185,2.1852,2.1819,2.1833,2.1826,2.1831,2.1803,2.1796,2.1803,2.1779,2.1781,2.1824,2.1867,2.1776,2.1778,2.1938,2.1943,2.1947,2.2037,0,0,0,0,0,0,2.1837,2.1842,2.187,2.1851,2.1853,2.191,2.1836,2.1828,2.1835,2.1827,2.1812,2.1807,2.1777,2.1822,2.1827,2.1868,2.178,2.1934,2.194,2.1946,2.203,2.2044,2.2057,0,0,0,0,0,2.1835,2.1897,2.1872,2.1877,2.1888,2.1912,2.1913,2.1878,2.1839,2.1866,2.1848,2.1807,2.1862,2.1827,2.1832,2.1875,2.1931,2.1939,2.1946,2.2024,2.2042,2.2056,0,0,0,0,0,0,2.1923,2.1894,2.1866,2.1923,2.1921,2.1898,2.1932,2.1898,2.1906,2.1898,2.1854,2.1851,2.19,2.1892,2.1854,2.1944,2.1889,2.1898,2.1948,2.1964,2.1977,2.1977,2.1782,0,0,0,0,0,2.1948,2.1971,2.1944,2.1998,2.1998,2.1965,2.1975,2.1947,2.1943,2.1942,2.1927,2.1924,2.194,2.1952,2.1965,2.2029,2.2024,2.2061,2.2074,2.2085,2.2092,2.2124,2.2139,2.1972,2.1972,2.1972,0,0,2.2002,2.1989,2.2006,2.2015,2.2009,2.2033,2.1965,2.1993,2.201,2.1946,2.1985,2.1974,2.1968,2.2022,2.2044,2.2016,2.2138,2.2094,2.2103,2.2104,2.2132,2.2148,2.2162,2.1977,2.1976,2.1975,0,0,2.2111,2.2105,2.2147,2.2143,2.2135,2.2113,2.2124,2.2106,2.2096,2.2134,2.2086,2.2106,2.2135,2.2132,2.2135,2.2242,2.2204,2.2248,2.2315,2.2346,2.2359,2.2371,2.2407,2.2421,2.2255,2.2256,2.2256,0,2.2179,2.2212,2.2173,2.2204,2.2208,2.2151,2.2192,2.2191,2.2189,2.2193,2.2161,2.2196,2.2188,2.2239,2.2265,2.2269,2.2279,2.2248,2.2361,2.2372,2.2382,2.2415,2.2429,2.2261,2.226,2.226,2.2259,0,2.2294,2.2318,2.2353,2.2351,2.236,2.2396,2.2362,2.2376,2.2348,2.2329,2.2368,2.2357,2.2366,2.2376,2.235,2.2423,2.2405,2.2368,2.2312,2.2403,2.2434,2.2447,2.2268,2.2266,2.2265,2.2264,0,0,2.2458,2.2432,2.2446,2.2443,2.243,2.2448,2.2481,2.249,2.2501,2.2502,2.2528,2.2553,2.2518,2.2521,2.2494,2.2521,2.2604,2.248,2.2479,2.2502,2.2682,2.2708,2.2724,2.258,2.2582,2.2584,2.2681,0,2.256,2.2615,2.258,2.264,2.266,2.2606,2.2635,2.263,2.2613,2.2628,2.261,2.2628,2.2581,2.2582,2.2607,2.2589,2.2639,2.2582,2.2602,2.2603,2.2603,2.2741,2.2769,2.2861,2.2694,2.2696,2.2697,0,2.2687,2.2691,2.2753,2.2734,2.2741,2.2768,2.2772,2.2787,2.278,2.2766,2.2769,2.2735,2.2765,2.2711,2.2753,2.2714,2.2721,2.2713,2.2716,2.2715,2.2654,2.2741,2.289,2.2903,2.2716,2.2715,2.2713,0,2.2796,2.2818,2.2857,2.2857,2.2837,2.2856,2.2849,2.2839,2.2846,2.285,2.2853,2.2862,2.2866,2.2873,2.2841,2.2805,2.2886,2.2829,2.2874,2.2875,2.2892,2.2891,2.3042,2.29,2.29,2.29,2.2899,0,2.2913,2.2953,2.2906,2.293,2.2972,2.2932,2.2974,2.2961,2.2953,2.2973,2.2928,2.2948,2.2906,2.2921,2.2897,2.2934,2.2937,2.2925,2.2918,2.2928,2.2929,2.293,2.2922,2.2903,2.2902,2.2902,2.2901,0,2.3042,2.3013,2.3051,2.3028,2.3024,2.3055,2.3036,2.3057,2.3037,2.3063,2.3067,2.3036,2.3052,2.3021,2.3034,2.3017,2.3068,2.3052,2.307,2.3065,2.311,2.3105,2.3265,2.3283,2.3132,2.3134,2.3135,0,2.3117,2.3146,2.3126,2.3135,2.313,2.3147,2.3153,2.3115,2.3123,2.3117,2.3139,2.315,2.3158,2.3186,2.3164,2.3173,2.3156,2.3211,2.3157,2.3165,2.3154,2.3151,2.3153,2.3222,2.3224,2.3225,2.3226,0,2.3253,2.3237,2.3247,2.3252,2.326,2.3263,2.3262,2.3273,2.3232,2.3244,2.3259,2.3264,2.3276,2.3288,2.3292,2.3284,2.3248,2.3244,2.3254,2.3264,2.3272,2.3266,2.3098,2.324,2.3239,2.3238,2.3237,2.3236,2.3355,2.3377,2.3366,2.3379,2.3374,2.3374,2.3392,2.3374,2.3385,2.3391,2.3369,2.3388,2.338,2.3381,2.3377,2.3392,2.3368,2.3383,2.3387,2.339,2.3397,2.3272,2.3393,2.3393,2.3393,2.3392,2.3392,0,2.3487,2.3477,2.3489,2.3488,2.3498,2.3463,2.346,2.347,2.3488,2.3483,2.3491,2.3508,2.3519,2.3499,2.3507,2.3522,2.3506,2.3526,2.3523,2.3521,2.342,2.3409,2.3539,2.3539,2.3539,2.3538,2.3538,2.3538,2.3556,2.359,2.3573,2.3604,2.3594,2.3612,2.3613,2.3613,2.3608,2.3628,2.3637,2.3624,2.3612,2.3619,2.3628,2.3621,2.3626,2.3651,2.3639,2.3543,2.3529,2.3515,2.3504,2.3652,2.3652,2.3739,2.3739,2.374]},{"header":{"parameterUnit":"m.s-1","parameterCategory":1,"la1":30.2991,"la2":30.254,"lo1":-89.0895,"lo2":-89.0444,"dy":0.0017,"dx":0.0017,"nx":28,"ny":28,"refTime":"2024-07-07T09:00:00:Z","depth":0,"parameterNumber":3,"parameterNumberName":"V-component_of_WINDS"},"data":[0,0,0,0,0,0,0,0,0,0,0,0,0,0,0,0,0,0,0,0,0,0,0,0,0,0,0,0,0,0,0,0,0,0,0,0,0,0,0,0,0,0,0,0,0,0,0,0,0,0,0,0,0,0,0,0,0,0,6.4876,6.4878,0,6.5079,6.5082,6.5084,6.508,6.5077,6.5075,6.5072,6.5275,6.5283,6.5291,0,0,0,0,0,0,0,0,0,0,0,0,0,6.4477,6.4484,6.4875,6.4878,6.4881,6.5079,6.5082,6.5084,6.5081,6.5077,6.5074,6.5071,6.5273,6.5282,6.5291,0,0,0,0,0,0,0,0,0,0,0,0,0,6.4662,6.4486,6.4875,6.4903,6.4907,6.5078,6.5082,6.5085,6.5081,6.5077,6.5073,6.5069,6.5269,6.5281,6.5293,6.5448,0,0,6.5329,6.5334,0,0,0,0,0,0,0,0,6.4651,6.4676,6.4896,6.4901,6.4906,6.505,6.5015,6.5207,6.5082,6.5015,6.5072,6.5067,6.5203,6.522,6.5267,6.5458,6.5466,6.533,6.5337,6.5343,6.5346,0,0,0,0,0,0,0,6.4639,6.4668,6.4956,6.4899,6.4906,6.4903,6.4925,6.5052,6.5129,6.5021,6.5021,6.5045,6.5205,6.5256,6.5272,6.5469,6.533,6.534,6.5348,6.5352,6.5794,6.5798,0,0,0,0,0,0,6.4621,6.4657,6.4949,6.4962,6.4766,6.4913,6.4938,6.5008,6.5128,6.5142,6.5048,6.5044,6.5237,6.5258,6.5279,6.5467,6.5342,6.5354,6.536,6.5789,6.5795,6.58,0,0,0,0,0,0,6.4612,6.4647,6.4941,6.481,6.4847,6.4925,6.5004,6.5014,6.5065,6.5149,6.5162,6.5086,6.5235,6.5262,6.5406,6.5474,6.5359,6.537,6.5784,6.5791,6.5797,6.5844,0,0,0,0,0,0,6.4601,6.4644,6.4705,6.4811,6.4854,6.5067,6.5008,6.5021,6.5086,6.5083,6.5188,6.5202,6.5234,6.5388,6.5418,6.5488,6.5379,6.5778,6.5787,6.5795,6.5837,6.5852,6.5865,0,0,0,0,0,6.4587,6.471,6.4709,6.4744,6.4933,6.5071,6.5095,6.5131,6.5092,6.5153,6.5207,6.5198,6.5462,6.5403,6.5436,6.5511,6.5774,6.5784,6.5794,6.5831,6.5849,6.5864,0,0,0,0,0,0,6.4609,6.4724,6.4724,6.4886,6.4969,6.507,6.5148,6.515,6.5244,6.5236,6.5275,6.5299,6.5442,6.5491,6.5423,6.5666,6.5613,6.563,6.5629,6.5647,6.566,6.5645,6.5389,0,0,0,0,0,6.4633,6.4737,6.4832,6.4965,6.5007,6.507,6.5132,6.5152,6.5239,6.5273,6.5338,6.542,6.5521,6.5587,6.5685,6.5844,6.5866,6.5912,6.5926,6.5937,6.5951,6.6036,6.6057,6.5834,6.5833,6.5833,0,0,6.4683,6.4759,6.4822,6.4971,6.5038,6.5142,6.51,6.5213,6.529,6.529,6.5429,6.5479,6.5573,6.5725,6.5795,6.577,6.6017,6.595,6.5958,6.5966,6.6049,6.607,6.6088,6.5841,6.5839,6.5838,0,0,6.4827,6.4896,6.5014,6.5081,6.5183,6.5224,6.5252,6.5354,6.5387,6.5528,6.5529,6.5621,6.5795,6.5861,6.5918,6.6086,6.608,6.6116,6.6188,6.627,6.6288,6.6304,6.6361,6.6381,6.613,6.6131,6.6131,0,6.4876,6.5036,6.5074,6.5187,6.5251,6.5258,6.5375,6.5438,6.5566,6.5609,6.558,6.5798,6.5862,6.6028,6.6068,6.6115,6.6146,6.6104,6.6283,6.6299,6.6314,6.6369,6.6391,6.6134,6.6134,6.6133,6.6133,0,6.5089,6.5199,6.5282,6.5406,6.548,6.5594,6.5648,6.5717,6.5731,6.5775,6.5916,6.5994,6.6106,6.6147,6.6162,6.6314,6.6296,6.6275,6.6221,6.6338,6.639,6.6412,6.6139,6.6138,6.6137,6.6136,0,0,6.5253,6.5396,6.5425,6.5481,6.5593,6.5677,6.5791,6.5903,6.596,6.6048,6.6142,6.6289,6.627,6.6334,6.6356,6.6429,6.6553,6.6398,6.6401,6.6422,6.6723,6.6736,6.676,6.6551,6.6555,6.6559,6.6714,0,6.5407,6.5611,6.5648,6.5825,6.5925,6.5932,6.6031,6.6109,6.6152,6.6242,6.6289,6.6392,6.636,6.6398,6.6471,6.6522,6.6613,6.6512,6.6636,6.664,6.661,6.6788,6.6803,6.6946,6.6735,6.6738,6.6741,0,6.5614,6.5708,6.5895,6.5991,6.6035,6.6123,6.6227,6.6314,6.6401,6.6427,6.6498,6.6512,6.6627,6.657,6.6728,6.6658,6.6711,6.6744,6.6751,6.6762,6.6696,6.6801,6.6993,6.7013,6.6774,6.6771,6.6769,0,6.5712,6.5884,6.6018,6.6065,6.6182,6.6243,6.6294,6.6378,6.6441,6.6532,6.6573,6.6675,6.673,6.6808,6.6847,6.6802,6.7001,6.6948,6.7024,6.7023,6.7064,6.706,6.7264,6.7102,6.7102,6.7101,6.7101,0,6.5879,6.5992,6.6063,6.6145,6.6271,6.6312,6.6435,6.6485,6.6559,6.6648,6.666,6.6744,6.6792,6.6882,6.6913,6.7038,6.7063,6.7085,6.7092,6.7083,6.708,6.7117,6.7107,6.7107,6.7106,6.7105,6.7104,0,6.6008,6.6061,6.6206,6.6304,6.6332,6.642,6.6503,6.6581,6.6624,6.6738,6.6766,6.6833,6.694,6.6987,6.7118,6.7139,6.728,6.7281,6.7251,6.7253,6.7325,6.7316,6.7557,6.759,6.7408,6.741,6.7412,0,6.611,6.6198,6.6305,6.6367,6.642,6.6519,6.6584,6.6627,6.6693,6.6799,6.6864,6.6971,6.7058,6.7227,6.7286,6.7385,6.7387,6.7465,6.7402,6.739,6.7385,6.7378,6.7386,6.7475,6.7477,6.7478,6.748,0,6.6285,6.6306,6.6401,6.6504,6.6581,6.6664,6.6746,6.6795,6.6849,6.6924,6.7033,6.7101,6.7235,6.7339,6.7443,6.7492,6.7494,6.7499,6.7522,6.7512,6.749,6.7501,6.7279,6.7493,6.7492,6.7491,6.749,6.7489,6.6403,6.648,6.6567,6.6671,6.6736,6.6811,6.6889,6.6942,6.7034,6.7147,6.7166,6.7282,6.7365,6.7503,6.7557,6.7647,6.7628,6.7661,6.7668,6.7675,6.7678,6.7478,6.7666,6.7665,6.7665,6.7665,6.7665,0,6.6575,6.6632,6.6727,6.684,6.6921,6.6918,6.7007,6.7074,6.7177,6.7254,6.734,6.7465,6.7566,6.7633,6.7735,6.7793,6.7796,6.7818,6.7813,6.7824,6.7691,6.766,6.7814,6.7814,6.7814,6.7814,6.7814,6.7814,6.6675,6.6804,6.6835,6.6996,6.7051,6.7166,6.7217,6.7285,6.7347,6.7486,6.757,6.7614,6.7686,6.7793,6.7885,6.7902,6.7938,6.796,6.7976,6.7849,6.7834,6.7819,6.779,6.7968,6.7969,6.8101,6.8102,6.8103]}]]